Weather History for KFLY - August, 2014

Change the Weather History Date:

Sunday, August 17, 2014

  Actual Average (KCOS) Record (KCOS)
Temperature  
Mean Temperature 70 °F 69 °F  
Max Temperature 86 °F 82 °F 95 °F (1962)
Min Temperature 55 °F 56 °F 42 °F (1920)
Degree Days  
Heating Degree Days 0 1  
Month to date heating degree days 2  
Since 1 June heating degree days 91  
Since 1 July heating degree days 12  
Cooling Degree Days 6 4  
Month to date cooling degree days 85  
Year to date cooling degree days 369  
Since 1 June cooling degree days 359  
Growing Degree Days 20 (Base 50)    
Moisture  
Dew Point 44 °F    
Average Humidity 47    
Maximum Humidity 73    
Minimum Humidity 15    
Precipitation  
Precipitation 0.00 in 0.12 in 1.44 in (1932)
Month to date precipitation 2.07  
Year to date precipitation 12.52  
Snow  
Snow 0.00 in 0.00 in T in (2007)
Month to date snowfall 0.0  
Since 1 June snowfall 0.0  
Since 1 July snowfall 0.0  
Snow Depth -    
Sea Level Pressure  
Sea Level Pressure 30.30 in    
Wind  
Wind Speed 5 mph (WNW)    
Max Wind Speed 28 mph    
Max Gust Speed 50 mph    
Visibility 10 miles    
Events Rain , Thunderstorm    
T = Trace of Precipitation, MM = Missing Value Source: NWS Daily Summary

Daily Weather History Graph

Daily Weather History Graph

Search for Another Location

Airport or City:

Trip Planner

Search our weather history database for the weather conditions in past years. The results will help you decide how hot, cold, wet, or windy it might be!

Date:

Astronomy

Aug. 17, 2014 Rise Set
Actual Time 6:13 AM MDT 7:50 PM MDT
Civil Twilight 5:45 AM MDT 8:18 PM MDT
Nautical Twilight 5:11 AM MDT 8:52 PM MDT
Astronomical Twilight 4:34 AM MDT 9:28 PM MDT
Moon No Moon Rise 1:57 PM MDT (8/17)
Length of Visible Light 14h 33m
Length of Day
13h 36m
Waning Gibbous, 48% of the Moon is Illuminated
Aug 17
Waning Gibbous
Aug 25
New
Sep 2
First Quarter
Sep 8
Full
Sep 15
Last Quarter

Hourly Weather History & Observations

Time (MDT) Temp. Dew Point Humidity Pressure Visibility Wind Dir Wind Speed Gust Speed Precip Events Conditions
12:16 AM 62.1 °F 46.6 °F 57% 30.30 in 10.0 mi Calm Calm - N/A   Scattered Clouds
12:35 AM 59.0 °F 47.8 °F 66% 30.30 in 10.0 mi Calm Calm - N/A   Clear
12:55 AM 61.0 °F 45.3 °F 56% 30.30 in 10.0 mi Calm Calm - N/A   Clear
1:16 AM 59.4 °F 44.6 °F 58% 30.30 in 10.0 mi Calm Calm - N/A   Clear
1:36 AM 57.4 °F 45.7 °F 65% 30.28 in 10.0 mi West 4.6 mph - N/A   Clear
1:56 AM 57.2 °F 45.7 °F 65% 30.28 in 10.0 mi West 5.8 mph - N/A   Clear
2:16 AM 57.9 °F 44.8 °F 62% 30.28 in 10.0 mi West 4.6 mph - N/A   Clear
2:36 AM 56.5 °F 45.7 °F 67% 30.28 in 10.0 mi WNW 6.9 mph - N/A   Clear
2:56 AM 55.9 °F 45.7 °F 68% 30.28 in 10.0 mi WNW 6.9 mph - N/A   Clear
3:16 AM 55.0 °F 46.6 °F 73% 30.28 in 10.0 mi WNW 5.8 mph - N/A   Clear
3:36 AM 55.2 °F 46.0 °F 71% 30.28 in 10.0 mi WNW 5.8 mph - N/A   Clear
3:56 AM 56.5 °F 45.0 °F 65% 30.28 in 10.0 mi WNW 5.8 mph - N/A   Clear
4:16 AM 56.7 °F 44.6 °F 64% 30.28 in 10.0 mi West 6.9 mph - N/A   Clear
4:36 AM 55.9 °F 45.3 °F 68% 30.28 in 10.0 mi WNW 6.9 mph - N/A   Clear
4:56 AM 55.8 °F 45.3 °F 68% 30.28 in 10.0 mi WNW 5.8 mph - N/A   Clear
5:15 AM 55.6 °F 43.2 °F 63% 30.28 in 10.0 mi WNW 9.2 mph - N/A   Clear
5:35 AM 58.8 °F 42.4 °F 55% 30.29 in 10.0 mi WNW 9.2 mph - N/A   Clear
5:55 AM 56.3 °F 44.4 °F 64% 30.30 in 10.0 mi NW 6.9 mph - N/A   Clear
6:15 AM 57.0 °F 44.1 °F 62% 30.30 in 10.0 mi NW 6.9 mph - N/A   Clear
6:35 AM 57.2 °F 43.9 °F 61% 30.30 in 10.0 mi NW 6.9 mph - N/A   Clear
6:55 AM 58.3 °F 45.1 °F 62% 30.30 in 10.0 mi WNW 6.9 mph - N/A   Clear
7:15 AM 62.6 °F 46.6 °F 56% 30.30 in 10.0 mi WNW 8.1 mph - N/A   Clear
7:35 AM 67.5 °F 46.9 °F 48% 30.31 in 10.0 mi WNW 8.1 mph - N/A   Clear
7:55 AM 70.9 °F 46.4 °F 42% 30.31 in 10.0 mi WNW 3.5 mph - N/A   Clear
8:16 AM 73.8 °F 44.4 °F 35% 30.32 in 10.0 mi NW 3.5 mph - N/A   Clear
8:36 AM 74.1 °F 44.4 °F 35% 30.32 in 10.0 mi NNW 6.9 mph - N/A   Clear
8:56 AM 74.8 °F 43.9 °F 33% 30.33 in 10.0 mi NNW 6.9 mph - N/A   Clear
9:16 AM 77.7 °F 42.1 °F 28% 30.33 in 10.0 mi Calm Calm - N/A   Clear
9:35 AM 79.3 °F 38.7 °F 23% 30.33 in 10.0 mi NNE 5.8 mph - N/A   Clear
9:55 AM 79.2 °F 39.9 °F 25% 30.33 in 10.0 mi North 4.6 mph - N/A   Clear
10:15 AM 79.9 °F 41.4 °F 25% 30.33 in 10.0 mi NNE 8.1 mph - N/A   Clear
10:35 AM 80.6 °F 37.2 °F 21% 30.33 in 10.0 mi NE 6.9 mph - N/A   Clear
10:55 AM 81.7 °F 41.0 °F 24% 30.33 in 10.0 mi NE 8.1 mph - N/A   Clear
11:15 AM 81.7 °F 38.8 °F 22% 30.32 in 10.0 mi ENE 8.1 mph - N/A   Clear
11:35 AM 82.9 °F 38.3 °F 20% 30.32 in 10.0 mi ENE 10.4 mph - N/A   Clear
11:55 AM 82.8 °F 32.9 °F 17% 30.32 in 10.0 mi Calm Calm - N/A   Clear
12:15 PM 83.3 °F 32.5 °F 16% 30.32 in 10.0 mi Calm Calm - N/A   Clear
12:35 PM 84.4 °F 36.3 °F 18% 30.31 in 10.0 mi ENE 4.6 mph - N/A   Clear
12:55 PM 84.4 °F 36.5 °F 18% 30.30 in 10.0 mi SE 3.5 mph - N/A   Clear
1:15 PM 84.6 °F 33.6 °F 16% 30.30 in 10.0 mi Calm Calm - N/A   Scattered Clouds
1:36 PM 84.2 °F 35.6 °F 18% 30.29 in 10.0 mi SE 6.9 mph - N/A   Scattered Clouds
1:55 PM 85.5 °F 37.8 °F 18% 30.29 in 10.0 mi SSE 5.8 mph - N/A   Clear
2:15 PM 84.7 °F 33.6 °F 16% 30.29 in 10.0 mi South 3.5 mph - N/A   Clear
2:35 PM 85.1 °F 32.9 °F 15% 30.28 in 10.0 mi Calm Calm - N/A   Clear
2:55 PM 85.1 °F 34.9 °F 17% 30.27 in 10.0 mi SW 6.9 mph - N/A   Clear
3:15 PM 85.5 °F 36.5 °F 17% 30.26 in 10.0 mi Calm Calm - N/A   Clear
3:35 PM 86.4 °F 36.1 °F 17% 30.26 in 10.0 mi ENE 3.5 mph - N/A   Clear
4:15 PM 72.0 °F 40.1 °F 32% 30.29 in 10.0 mi NNW 27.6 mph 49.5 mph N/A Thunderstorm Mostly Cloudy
4:35 PM 63.0 °F 48.2 °F 59% 30.33 in 5.0 mi WNW 20.7 mph 35.7 mph N/A Rain , Thunderstorm Heavy Thunderstorms and Rain
4:55 PM 63.1 °F 47.3 °F 56% 30.34 in 10.0 mi NNE 6.9 mph 12.7 mph N/A Rain , Thunderstorm Light Thunderstorms and Rain
5:15 PM 65.8 °F 46.8 °F 50% 30.31 in 10.0 mi SE 6.9 mph - N/A   Scattered Clouds
5:35 PM 70.2 °F 49.1 °F 47% 30.30 in 10.0 mi SE 5.8 mph - N/A   Clear
5:55 PM 70.0 °F 48.0 °F 46% 30.30 in 10.0 mi Calm Calm - N/A   Clear
6:15 PM 69.6 °F 51.6 °F 53% 30.30 in 10.0 mi SSW 3.5 mph - N/A   Scattered Clouds
6:35 PM 69.1 °F 47.7 °F 46% 30.30 in 10.0 mi SW 8.1 mph - N/A   Scattered Clouds
6:55 PM 68.2 °F 48.9 °F 50% 30.28 in 10.0 mi Calm Calm - N/A   Clear
7:15 PM 67.3 °F 49.1 °F 52% 30.28 in 10.0 mi NNW 4.6 mph - N/A   Clear
7:35 PM 65.8 °F 50.7 °F 58% 30.28 in 10.0 mi NW 4.6 mph - N/A   Clear
7:55 PM 62.8 °F 51.6 °F 67% 30.29 in 10.0 mi NNW 3.5 mph - N/A   Clear
8:15 PM 62.1 °F 51.4 °F 68% 30.28 in 10.0 mi WSW 4.6 mph - N/A   Clear
8:35 PM 62.6 °F 51.1 °F 66% 30.27 in 10.0 mi SW 5.8 mph - N/A   Clear
8:55 PM 62.8 °F 48.7 °F 60% 30.29 in 10.0 mi WSW 6.9 mph - N/A   Clear
9:15 PM 61.7 °F 49.1 °F 63% 30.30 in 10.0 mi SW 9.2 mph - N/A   Clear
9:35 PM 60.1 °F 49.1 °F 67% 30.30 in 10.0 mi WSW 6.9 mph - N/A   Clear
9:55 PM 59.7 °F 49.5 °F 69% 30.29 in 10.0 mi WSW 6.9 mph - N/A   Clear
10:15 PM 60.4 °F 48.2 °F 64% 30.28 in 10.0 mi West 8.1 mph - N/A   Clear
10:35 PM 61.0 °F 46.6 °F 59% 30.28 in 10.0 mi WSW 8.1 mph - N/A   Clear
10:55 PM 60.1 °F 46.2 °F 60% 30.27 in 10.0 mi West 6.9 mph - N/A   Clear
11:15 PM 59.0 °F 45.9 °F 62% 30.26 in 10.0 mi West 5.8 mph - N/A   Clear
11:35 PM 59.7 °F 45.1 °F 59% 30.26 in 10.0 mi West 6.9 mph - N/A   Clear
11:55 PM 57.2 °F 45.9 °F 66% 30.26 in 10.0 mi West 6.9 mph - N/A   Clear